This is the latest recevied weather packets stored in our database for station/object EA1IOK-1. If no packets are shown the sender has not sent any weather packets the latest 10 day(s).
| Time | Temp. | Humidity | Pressure | Rain* | Wind** | Luminosity | Snow |
|---|---|---|---|---|---|---|---|
| 1777448058 | 13.33° C | 100% | 1006.2 hPa | - | - | - | - |
| 1777447157 | 13.89° C | 100% | 1006.1 hPa | - | - | - | - |
| 1777446258 | 12.78° C | 100% | 1005.9 hPa | - | - | - | - |
| 1777445357 | 12.22° C | 100% | 1005.7 hPa | - | - | - | - |
| 1777444457 | 12.22° C | 100% | 1005.7 hPa | - | - | - | - |
| 1777443557 | 11.67° C | 100% | 1005.6 hPa | - | - | - | - |
| 1777442657 | 11.11° C | 100% | 1005.5 hPa | - | - | - | - |
| 1777441757 | 11.11° C | 100% | 1005.3 hPa | - | - | - | - |
| 1777440856 | 11.11° C | 100% | 1005.2 hPa | - | - | - | - |
| 1777439956 | 11.11° C | 100% | 1005.4 hPa | - | - | - | - |
| 1777439056 | 11.11° C | 100% | 1005.5 hPa | - | - | - | - |
| 1777438156 | 10.56° C | 100% | 1005.6 hPa | - | - | - | - |
| 1777437294 | 10.56° C | 100% | 1005.7 hPa | - | - | - | - |
| 1777437256 | 10.56° C | 100% | 1005.7 hPa | - | - | - | - |
| 1777436355 | 10.56° C | 100% | 1005.9 hPa | - | - | - | - |
| 1777435455 | 11.11° C | 100% | 1006 hPa | - | - | - | - |
| 1777434555 | 11.11° C | 100% | 1006 hPa | - | - | - | - |
| 1777433694 | 11.11° C | 100% | 1006.3 hPa | - | - | - | - |
| 1777433655 | 11.11° C | 100% | 1006.3 hPa | - | - | - | - |
| 1777432755 | 11.11° C | 100% | 1006.2 hPa | - | - | - | - |
| 1777431855 | 12.22° C | 100% | 1006.5 hPa | - | - | - | - |
| 1777430954 | 12.22° C | 100% | 1006.4 hPa | - | - | - | - |
| 1777430054 | 12.22° C | 100% | 1006.3 hPa | - | - | - | - |
| 1777429154 | 12.22° C | 100% | 1006.6 hPa | - | - | - | - |
| 1777428254 | 12.22° C | 100% | 1006.6 hPa | - | - | - | - |
* Rain since midnight (hover to see other rain measurements)
** Current wind speed in m/s (hover to see current wind gust speed)